FW3743 Weather Reports


Display with metric or nautical units.
time (UTC)temp
F
wind
direction
speed
MPH
gust
MPH
rain 1hr
in
rain 24hr
in
rain mn
in
humidity
%
barometer
mb
20260506062433 48 0.0 0.0 0.01 0.56 0.03 99 1009.6
20260506061434 48 0.0 0.0 0.01 0.56 0.03 99 1009.6
20260506060433 48 0.0 0.0 0.00 0.54 0.01 99 1010.0
20260506050433 48 0.0 0.0 0.01 0.54 0.01 99 1010.9
20260506044433 48 0.0 0.0 0.06 0.54 0.01 99 1010.9
20260506043454 48 0.0 0.0 0.09 0.54 0.01 99 1010.8
20260506042433 48 0.0 0.0 0.11 0.54 0.01 99 1010.7
20260506041455 48 0.0 0.0 0.12 0.53 0.00 99 1010.7
20260506040433 48 0.0 0.0 0.14 0.53 0.00 99 1010.8
20260506035434 48 0.0 0.0 0.15 0.52 0.52 99 1011.2
20260506034433 48 0.0 0.0 0.11 0.48 0.48 99 1011.6
20260506033454 48 0.0 0.0 0.09 0.44 0.44 99 1011.2
20260506032433 48 0.0 0.0 0.08 0.43 0.43 99 1011.0
20260506031434 48 0.0 0.0 0.08 0.41 0.41 99 1011.4
20260506030433 48 0.0 0.0 0.08 0.39 0.39 99 1011.1
20260506025434 48 0.0 0.0 0.08 0.37 0.37 99 1011.4
20260506024434 48 0.0 0.0 0.09 0.36 0.36 99 1011.5
20260506023434 48 0.0 0.0 0.09 0.35 0.35 99 1011.1
20260506022433 48 0.0 0.0 0.12 0.34 0.34 99 1011.3
20260506021454 48 0.0 0.0 0.11 0.32 0.32 99 1011.5
20260506020433 49 0.0 0.0 0.11 0.30 0.30 99 1010.9
20260506015454 48 0.0 0.0 0.09 0.28 0.28 99 1011.4
20260506014433 48 0.0 0.0 0.08 0.26 0.26 99 1011.0
20260506013434 48 0.0 0.0 0.11 0.26 0.26 99 1010.8
20260506012433 48 0.0 0.0 0.12 0.22 0.22 99 1011.2
20260506011434 49 0.0 0.0 0.11 0.20 0.20 99 1011.0
20260506010433 49 0.0 0.0 0.09 0.19 0.19 99 1010.8
20260506005434 49 0.0 0.0 0.09 0.19 0.19 98 1010.6
20260506004453 50 0.0 0.0 0.08 0.18 0.18 95 1011.0
20260506003434 51 0.0 0.0 0.04 0.14 0.14 91 1011.3
20260506002433 54 0.0 0.0 0.00 0.09 0.09 79 1010.3
20260506001434 55 235 0.0 7.0 0.00 0.09 0.09 73 1009.8
20260506000453 56 307 0.0 2.0 0.00 0.09 0.09 73 1009.5
20260505235435 57 332 0.0 7.0 0.00 0.09 0.09 73 1009.3
20260505234433 58 29 0.0 4.0 0.00 0.09 0.09 73 1009.2
20260505233434 59 342 0.0 4.0 0.00 0.09 0.09 73 1008.7
20260505232432 59 21 0.0 8.0 0.00 0.09 0.09 73 1008.5
20260505231454 60 264 0.0 4.0 0.00 0.09 0.09 73 1008.3
20260505230432 60 262 1.0 11.0 0.00 0.09 0.09 71 1007.9
20260505225434 61 336 0.0 4.0 0.00 0.09 0.09 70 1007.7
20260505224453 62 304 0.0 2.0 0.00 0.09 0.09 72 1007.5
20260505223434 62 328 0.0 4.0 0.00 0.09 0.09 74 1007.2
20260505222453 62 0.0 0.0 0.03 0.09 0.09 76 1007.0
20260505221434 63 0.0 0.0 0.04 0.09 0.09 76 1006.8
20260505220433 62 0.0 0.0 0.04 0.09 0.09 78 1006.7
20260505215434 62 0.0 0.0 0.04 0.09 0.09 82 1006.7
20260505214433 63 316 0.0 4.0 0.04 0.09 0.09 83 1006.8
20260505213434 62 0.0 0.0 0.04 0.09 0.09 91 1006.6
20260505212453 63 304 0.0 1.0 0.00 0.05 0.05 82 1006.7
20260505211454 66 286 0.0 7.0 0.00 0.04 0.04 72 1006.0
20260505210433 67 46 0.0 4.0 0.00 0.04 0.04 68 1005.6
20260505205514 70 3 0.0 2.0 0.00 0.04 0.04 66 1005.3
20260505204433 72 0.0 0.0 0.00 0.04 0.04 68 1004.9
20260505203434 72 0.0 0.0 0.00 0.04 0.04 68 1004.7
20260505202433 71 274 0.0 1.0 0.00 0.04 0.04 69 1004.7
20260505201434 72 0.0 0.0 0.00 0.04 0.04 71 1004.9
20260505200432 72 273 0.0 2.0 0.00 0.04 0.04 71 1005.0
20260505195434 72 239 0.0 5.0 0.00 0.04 0.04 74 1005.2
20260505194433 72 0.0 0.0 0.00 0.04 0.04 73 1005.3
20260505193434 71 300 0.0 2.0 0.00 0.04 0.04 75 1005.3
20260505192433 70 296 1.0 10.0 0.00 0.04 0.04 75 1005.5
20260505191434 69 315 0.0 8.0 0.00 0.04 0.04 77 1005.4
20260505190433 68 309 1.0 7.0 0.00 0.04 0.04 80 1005.3
20260505185434 66 272 0.0 2.0 0.03 0.04 0.04 82 1005.4
20260505184433 63 0.0 0.0 0.03 0.04 0.04 87 1005.7
20260505183434 64 0.0 0.0 0.03 0.04 0.04 85 1006.0
20260505182433 64 310 0.0 2.0 0.03 0.04 0.04 86 1006.1
20260505181434 63 0.0 0.0 0.03 0.04 0.04 87 1005.5
20260505180613 65 295 0.0 7.0 0.03 0.03 0.03 82 1005.6
20260505175454 69 337 0.0 4.0 0.00 0.00 0.00 70 1004.8
20260505174433 69 0.0 0.0 0.00 0.00 0.00 69 1004.8
20260505173434 71 335 0.0 5.0 0.00 0.00 0.00 66 1004.7
20260505172453 72 254 0.0 4.0 0.00 0.00 0.00 61 1004.4
20260505171434 73 251 0.0 8.0 0.00 0.00 0.00 58 1004.3
20260505170433 73 0.0 0.0 0.00 0.00 0.00 59 1004.3
20260505165434 73 250 0.0 10.0 0.00 0.00 0.00 58 1004.4
20260505164453 73 270 0.0 2.0 0.00 0.00 0.00 58 1004.5
20260505163434 73 255 0.0 7.0 0.00 0.00 0.00 58 1004.0
20260505162432 74 289 0.0 12.0 0.00 0.00 0.00 58 1004.5
20260505161434 73 265 1.0 7.0 0.00 0.00 0.00 58 1004.3
20260505160433 73 281 4.0 12.0 0.00 0.00 0.00 58 1004.0
20260505152432 73 269 0.0 7.0 0.00 0.00 0.00 60 1004.6
20260505151434 73 311 3.0 12.0 0.00 0.00 0.00 59 1004.4
20260505150613 73 261 1.0 10.0 0.00 0.00 0.00 59 1004.7
20260505140433 73 0.0 0.0 0.00 0.00 0.00 61 1004.1
20260505124433 70 0.0 0.0 0.00 0.00 0.00 65 1004.2
20260505123433 70 285 1.0 11.0 0.00 0.00 0.00 63 1004.1
20260505122433 70 303 0.0 5.0 0.00 0.00 0.00 64 1004.2
20260505121433 69 294 1.0 11.0 0.00 0.00 0.00 64 1004.5
20260505120433 68 278 1.0 8.0 0.00 0.00 0.00 65 1004.2
20260505115433 67 284 0.0 5.0 0.00 0.00 0.00 67 1004.1
20260505114433 66 0.0 0.0 0.00 0.00 0.00 68 1004.0
20260505113433 66 201 0.0 2.0 0.00 0.00 0.00 68 1004.1
20260505112453 65 0.0 0.0 0.00 0.00 0.00 70 1004.0
20260505111433 65 245 0.0 8.0 0.00 0.00 0.00 70 1004.0
20260505110433 65 248 0.0 5.0 0.00 0.00 0.00 70 1003.9
20260505101433 60 0.0 0.0 0.00 0.00 0.00 82 1003.8
20260505100453 58 0.0 0.0 0.00 0.00 0.00 87 1004.0
20260505095433 57 0.0 0.0 0.00 0.00 0.00 91 1003.8
20260505094453 57 0.0 0.0 0.00 0.00 0.00 91 1003.9
20260505093432 58 0.0 0.0 0.00 0.00 0.00 92 1003.9
20260505092533 59 0.0 0.0 0.00 0.00 0.00 91 1003.9
20260505091432 59 0.0 0.0 0.00 0.00 0.00 90 1004.0
20260505090434 59 0.0 0.0 0.00 0.00 0.00 90 1004.0
20260505085433 60 0.0 0.0 0.00 0.00 0.00 89 1004.0
20260505084434 60 0.0 0.0 0.00 0.00 0.00 88 1004.0
20260505083432 62 303 0.0 5.0 0.00 0.00 0.00 84 1004.0
20260505082434 63 290 0.0 11.0 0.00 0.00 0.00 77 1004.5
20260505081433 63 290 2.0 15.0 0.00 0.00 0.00 73 1004.4
20260505080433 64 324 0.0 1.0 0.00 0.00 0.00 67 1004.4
20260505075453 64 156 0.0 2.0 0.00 0.00 0.00 68 1004.4
20260505074434 64 0.0 0.0 0.00 0.00 0.00 68 1004.2
20260505073432 63 274 0.0 1.0 0.00 0.00 0.00 69 1004.0
20260505072434 63 0.0 0.0 0.00 0.00 0.00 71 1004.3
20260505071433 63 0.0 0.0 0.00 0.00 0.00 71 1004.2
20260505070434 63 0.0 0.0 0.00 0.00 0.00 71 1004.3